Location: Juzet
(42.9779°N, 0.7597°E)
Time: 03:01:50
(UTC+00:00)

Cosmos 2233 Rocket - Pass Details

Date: 14 July 2020
Orbit: 954 x 990 km, 82.9° (Epoch: 04 August)

Event Time Altitude Azimuth Distance (km) Brightness Sun altitude
Exits shadow 02:39:39 23° 203° (SSW) 1,934 5.0 -16.0°
Maximum altitude 02:43:38 65° 280° (W) 1,060 4.1 -15.6°
Drops below altitude 10° 02:49:52 10° 2° (N) 2,737 7.1 -14.9°
Sets 02:52:27 0° 6° (N) 3,693 8.0 -14.5°
